Location: Azul
(36.7830°S, 59.8500°W)
Time: 18:09:57
(UTC-03:00)

ZACube-1 - Pass Details

Date: 26 October 2021
Orbit: 584 x 664 km, 97.6° (Epoch: 07 December)

Event Time Altitude Azimuth Distance (km) Brightness Sun altitude
Rises 04:20:54 0° 23° (NNE) 2,916 ? -19.0°
Reaches altitude 10° 04:23:05 10° 27° (NNE) 2,029 ? -18.6°
Maximum altitude 04:27:26 57° 105° (ESE) 773 ? -17.9°
Drops below altitude 10° 04:31:55 10° 183° (S) 2,099 ? -17.1°
Sets 04:34:13 0° 187° (S) 3,026 ? -16.7°
